Vertical_Velocity
1 -1 -6 -3 -1 -3 -3 -4 -12 -7 -8 -2 -11 5 13 16 0 -2 3 2 3 1 -3 -1 0 -3 -1 -3 -1 -5 2 1 -2 -7 5 4 4 2 4 -3 -4 -2 5 -36
-1 -2 -4 -4 -15 -3 0 -12 -9 -1 2 -6 -1 -0 -0 1 -1 1 4 4 7 2 -9 -8 4 2 1 -3 0 -8 -3 -3 -1 -0 1 3 0 -4 -3 4 7 -8 5 -26
-1 -2 -4 -4 -0 -11 4 -5 -5 -3 -4 -5 -5 -8 -8 -4 -0 5 0 -0 -2 2 1 4 -5 2 2 2 0 1 1 -1 -1 -6 2 -0 1 -1 5 12 6 -8 -16 -26
1 -3 -1 -4 -5 2 -3 3 -0 -0 -3 1 3 -6 0 -1 -4 -0 2 6 1 -3 -0 2 1 1 -0 2 0 -2 0 -2 -2 -0 -2 3 -2 -2 2 -1 -12 9 -27 3
-3 1 -3 -0 -4 -7 0 1 -5 -2 -6 -1 3 -1 -0 -1 -1 -3 -1 -4 2 2 -3 -2 -3 -4 1 -1 0 0 -2 -3 -4 -9 2 3 -2 1 1 3 -0 0 -2 -22
-1 -1 -1 -1 1 -2 -1 -2 -1 -1 1 0 0 0 -2 -1 -1 -0 1 0 -2 -2 -1 2 -3 -3 -3 -0 -0 -3 -1 -2 -0 -5 0 -1 -2 -5 -3 -3 1 1 -3 -2
-0 -1 -1 -3 2 -1 -3 -0 -1 -0 1 2 -1 4 1 -1 -1 -0 -2 -0 -2 -1 -0 -2 0 2 2 1 1 0 -1 1 1 -4 -2 -3 -5 1 1 -1 1 -0 -0 1
-0 0 -1 -2 -1 1 -1 -1 -1 -1 -7 3 1 0 -2 -0 -0 -1 -1 -1 -1 -1 -0 1 1 1 0 -2 0 -0 -1 2 -1 0 -1 -9 -4 0 -4 3 -0 -2 1 0
-1 -3 1 1 -4 -0 3 -0 -1 2 -3 -9 2 3 -3 -2 1 1 1 1 -2 -0 -1 -0 -1 1 1 -1 1 2 4 1 9 1 1 -1 1 -1 3 1 -3 1 -1 4
-1 -0 -6 -3 2 -3 -1 2 0 1 -1 2 -4 1 1 2 -1 0 1 -1 -0 1 1 0 -1 -0 1 -0 -0 -2 4 7 -4 -2 -1 -9 3 0 3 -0 2 1 2 1
-0 -3 -1 -5 -8 -4 0 1 1 1 -2 6 -2 -1 0 -3 7 1 -2 1 -0 1 -1 0 -0 1 1 -0 1 -2 -5 -4 -5 2 2 -10 1 -1 3 3 0 -2 -0 -1
-1 -1 0 -1 -0 -7 -8 4 0 1 -2 -1 2 -1 1 -1 -2 -2 -1 -1 2 1 1 -0 0 -0 -0 -0 -2 4 0 -6 -2 -3 0 5 4 -1 3 -0 -0 0 1 -1
-1 -2 -4 -4 -1 -4 -0 1 -1 1 -4 -3 7 -1 6 -2 -2 -2 2 -4 -0 1 1 0 -2 -3 -2 -2 -3 -1 0 8 2 2 1 0 1 3 0 -0 1 0 2 -0
-2 -1 -2 -1 -1 -2 -1 -2 3 0 0 -7 10 3 -1 -3 1 0 -1 -1 -0 1 1 0 -4 -5 -1 -3 -2 1 4 5 4 -3 -3 2 3 2 1 -1 0 -2 0 0
-1 -1 -0 -0 -1 -0 -2 -1 5 -0 -2 -1 4 9 11 1 2 -2 2 -0 1 1 -2 -1 -2 -3 -1 0 0 -7 6 0 -4 -19 3 4 1 1 2 0 1 -1 -1 -0
-2 0 1 1 -2 1 1 -4 -1 1 -0 -5 5 28 9 -1 2 -0 -1 -1 -1 -2 -0 -0 -3 -3 5 4 -6 2 7 7 8 -0 5 -5 -1 1 2 1 1 1 0 1
-4 -1 1 -1 0 1 0 -2 -5 -0 4 2 8 32 8 1 0 0 0 -1 -0 -1 1 -3 -1 5 3 0 -8 3 1 -2 -8 -0 -3 -3 0 -3 1 2 1 2 -1 2
-1 0 0 -1 -4 -3 -2 -3 -2 4 -1 1 8 21 8 1 2 3 1 -0 0 -1 2 -0 -4 -0 0 -5 -1 3 7 3 8 8 0 1 -0 0 0 2 1 -0 -8 4
-2 -2 0 -8 -2 -3 -5 -0 -4 -5 1 8 16 8 -0 5 4 1 0 1 -2 1 -2 -3 3 0 -3 3 -2 -3 -3 -3 -2 -1 -1 1 1 -2 0 0 2 4 -9 3
-2 -5 -3 -8 2 -2 -3 -3 1 2 6 11 22 -1 -1 1 -3 1 -2 -0 1 2 2 0 2 -1 -1 -2 -1 -2 -0 1 0 0 1 -2 -0 1 -1 0 0 1 -0 -1
-8 4 -5 -2 4 3 2 1 1 2 6 5 2 3 -1 2 1 -0 1 -1 -1 -1 1 2 2 2 -3 -2 -0 -0 0 2 1 -1 1 2 1 -2 0 2 4 3 -0 3
-7 3 -1 -1 1 0 0 -0 2 1 -0 -2 -0 -1 1 1 0 -1 -2 -0 1 1 2 1 3 -2 -2 -0 -0 1 1 -4 -2 -2 -1 -1 -0 2 -2 3 2 3 4 -2
-0 -2 -1 -0 1 1 -2 -4 -2 0 -1 -2 -0 0 0 1 1 -0 1 1 -0 0 0 0 -0 1 -1 1 2 -0 3 -3 2 5 -5 6 5 4 0 5 2 2 -0 -0
0 -1 -2 -2 -0 1 1 1 -1 -1 0 -0 1 3 -1 -1 -1 0 1 -1 -0 1 -1 -0 -0 2 1 -0 1 2 2 -5 4 -3 -0 0 -3 -5 7 6 1 -1 -1 2
0 -1 -1 -3 -2 1 2 2 1 -1 0 -0 -3 1 -2 0 -1 0 1 0 -1 -1 -0 0 -0 1 1 1 4 3 2 -2 -4 4 7 -1 -11 -2 6 6 -3 1 1 0
0 -3 -1 0 -3 -0 2 2 0 1 0 -2 2 4 -1 0 0 0 -0 -1 -1 0 -1 -0 0 1 1 1 0 1 1 2 -1 2 -5 -2 -4 -4 1 4 4 1 0 2
0 0 1 0 -1 -0 -1 -0 1 3 1 2 -0 3 -3 -1 -0 -2 -2 -3 -1 -0 -1 0 1 1 0 0 0 0 1 1 1 2 1 2 1 3 1 -4 -7 -4 1 2
Height
3014 3010 3002 2995 2989 2986 2986 2986 2983 2985 2988 2989 2990 2988 2989 2993 2997 2999 3001 3004 3005 3007 3015 3018 3023 3026 3028 3029 3033 3036 3042 3044 3045 3043 3044 3045 3045 3047 3049 3050 3046 3042 3038 3014
3018 3014 3009 3002 2999 2996 2995 2992 2991 2996 2996 2996 2996 2996 2997 3000 3003 3003 3004 3005 3006 3008 3015 3020 3023 3025 3028 3030 3032 3035 3039 3041 3041 3041 3042 3042 3042 3043 3044 3045 3044 3033 3040 3013
3020 3018 3014 3007 3005 3004 3003 2999 3000 3002 3001 3001 3001 3003 3004 3006 3006 3006 3007 3009 3011 3015 3017 3019 3021 3025 3028 3030 3032 3035 3037 3038 3038 3037 3037 3038 3040 3039 3040 3041 3037 3028 3020 3007
3023 3021 3016 3012 3008 3006 3008 3003 3004 3004 3006 3006 3006 3007 3008 3008 3009 3011 3011 3014 3015 3017 3019 3020 3022 3024 3026 3029 3031 3034 3035 3035 3034 3033 3033 3034 3033 3033 3033 3032 3028 3027 3010 3009
3024 3020 3019 3015 3011 3010 3009 3008 3007 3006 3008 3009 3009 3010 3011 3011 3012 3012 3013 3015 3016 3017 3018 3020 3021 3022 3025 3027 3029 3031 3032 3033 3032 3028 3028 3028 3027 3026 3025 3024 3021 3017 3011 3001
3024 3021 3016 3015 3012 3008 3007 3008 3008 3006 3008 3009 3011 3011 3012 3012 3012 3013 3014 3015 3016 3018 3019 3020 3021 3022 3024 3025 3027 3029 3031 3031 3031 3026 3026 3023 3022 3021 3020 3018 3016 3013 3008 3002
3023 3021 3017 3012 3010 3009 3007 3008 3009 3007 3007 3008 3010 3012 3012 3012 3013 3013 3013 3014 3015 3017 3018 3019 3021 3022 3023 3023 3025 3026 3028 3029 3029 3025 3024 3024 3019 3017 3016 3013 3012 3009 3004 2998
3021 3018 3016 3013 3009 3005 3004 3004 3005 3006 3005 3006 3007 3009 3010 3011 3012 3013 3013 3014 3015 3015 3017 3018 3019 3020 3021 3021 3021 3023 3025 3027 3027 3026 3024 3020 3015 3015 3013 3011 3009 3005 3001 2997
3019 3016 3012 3010 3008 3005 3000 3000 3001 3001 3003 3004 3004 3005 3007 3009 3010 3011 3012 3013 3014 3014 3015 3016 3016 3018 3018 3019 3019 3019 3022 3024 3026 3025 3024 3019 3013 3012 3010 3008 3004 3002 2999 2996
3015 3013 3011 3005 3003 3001 2999 2995 2993 2995 2994 2998 3001 3002 3002 3006 3008 3009 3010 3011 3012 3012 3012 3014 3015 3015 3016 3016 3016 3017 3019 3020 3021 3022 3021 3014 3012 3010 3008 3007 3008 3000 2998 2995
3010 3008 3006 3003 3000 2997 2993 2989 2988 2986 2985 2992 2993 2996 2998 3000 3003 3006 3009 3010 3009 3010 3011 3012 3012 3012 3013 3013 3014 3013 3015 3016 3016 3017 3017 3013 3009 3009 3009 3006 3001 2997 2995 2994
3004 3002 2999 2995 2993 2991 2989 2984 2978 2976 2976 2982 2985 2988 2993 2997 2999 3002 3005 3007 3007 3008 3008 3009 3009 3009 3010 3010 3011 3011 3013 3011 3011 3011 3008 3007 3007 3006 3004 3001 2998 2995 2993 2992
2997 2995 2991 2986 2981 2978 2976 2975 2971 2967 2965 2970 2973 2980 2988 2990 2994 2998 3002 3003 3005 3006 3007 3007 3007 3007 3007 3007 3006 3007 3008 3008 3006 3007 3004 3005 3004 3003 3001 2999 2996 2993 2991 2991
2991 2988 2984 2977 2971 2967 2964 2964 2963 2962 2960 2960 2966 2971 2976 2983 2989 2993 2997 3000 3002 3004 3004 3004 3004 3005 3004 3003 3004 3002 3004 3004 3002 3001 3002 3002 3002 3001 2999 2996 2994 2991 2990 2989
2985 2981 2974 2967 2962 2957 2953 2953 2954 2956 2959 2955 2958 2962 2971 2977 2983 2988 2993 2996 2999 3001 3002 3002 3002 3001 3001 2998 2997 2994 2997 2996 2997 2995 2998 2997 2998 2997 2995 2993 2992 2990 2989 2988
2978 2972 2965 2959 2953 2948 2947 2946 2947 2949 2950 2952 2954 2959 2966 2972 2978 2984 2989 2993 2996 2997 2998 2998 2997 2999 2998 2995 2991 2990 2991 2990 2989 2990 2991 2992 2993 2993 2993 2991 2990 2989 2988 2987
2973 2965 2959 2953 2947 2943 2942 2945 2944 2943 2948 2951 2951 2956 2963 2970 2976 2981 2986 2989 2992 2994 2994 2994 2994 2994 2994 2990 2986 2984 2983 2982 2983 2983 2985 2987 2988 2988 2989 2989 2988 2987 2987 2986
2968 2960 2954 2949 2945 2942 2941 2942 2944 2947 2950 2951 2950 2955 2963 2968 2973 2979 2983 2986 2988 2990 2990 2990 2990 2989 2989 2985 2983 2980 2979 2978 2979 2980 2981 2982 2983 2983 2984 2985 2985 2985 2985 2985
2965 2957 2953 2950 2947 2945 2945 2946 2949 2951 2954 2951 2952 2956 2962 2967 2971 2976 2980 2983 2985 2987 2986 2986 2987 2985 2985 2983 2979 2976 2975 2974 2974 2975 2976 2977 2977 2978 2979 2980 2981 2981 2981 2982
2964 2960 2957 2954 2951 2952 2953 2955 2955 2955 2954 2955 2956 2960 2962 2968 2971 2975 2980 2981 2982 2983 2984 2982 2981 2981 2981 2979 2977 2974 2972 2971 2970 2970 2971 2971 2971 2971 2972 2974 2976 2977 2977 2979
2965 2962 2960 2958 2955 2956 2956 2957 2958 2958 2958 2959 2960 2962 2964 2969 2972 2974 2977 2978 2980 2980 2981 2980 2977 2977 2977 2976 2974 2971 2969 2967 2965 2966 2967 2968 2968 2966 2967 2969 2971 2973 2974 2974
2966 2962 2961 2959 2958 2957 2957 2957 2957 2958 2959 2960 2962 2965 2967 2969 2971 2973 2975 2976 2976 2976 2976 2976 2974 2975 2974 2972 2969 2965 2964 2963 2962 2962 2964 2965 2965 2964 2965 2966 2967 2969 2971 2973
2963 2962 2961 2959 2958 2957 2956 2956 2957 2957 2958 2959 2962 2965 2967 2969 2971 2972 2973 2973 2974 2973 2973 2972 2972 2972 2972 2970 2966 2962 2960 2959 2955 2956 2960 2961 2962 2962 2958 2960 2962 2965 2967 2969
2960 2960 2959 2958 2955 2954 2953 2953 2954 2956 2956 2958 2960 2963 2965 2967 2969 2970 2970 2971 2971 2970 2969 2969 2970 2971 2971 2969 2965 2962 2960 2959 2956 2956 2957 2959 2959 2957 2952 2955 2958 2960 2964 2967
2957 2957 2955 2953 2952 2951 2951 2951 2952 2955 2956 2959 2961 2963 2965 2966 2968 2967 2968 2967 2966 2966 2966 2968 2968 2969 2969 2968 2966 2964 2961 2959 2958 2956 2958 2958 2957 2956 2954 2955 2957 2960 2963 2966
2953 2951 2949 2949 2950 2949 2949 2949 2951 2953 2955 2958 2961 2962 2963 2964 2964 2964 2963 2963 2962 2963 2964 2965 2966 2966 2966 2966 2965 2963 2962 2961 2959 2957 2957 2958 2957 2956 2957 2958 2959 2960 2962 2964
2947 2945 2945 2946 2947 2948 2948 2948 2949 2951 2955 2956 2958 2959 2960 2961 2960 2959 2959 2959 2960 2960 2962 2963 2963 2964 2963 2963 2962 2961 2960 2959 2958 2957 2956 2956 2956 2956 2957 2957 2957 2959 2960 2961